Location: Campillo
(40.8621°N, 4.2488°W)
Time: 16:49:42
(UTC+00:00)

Cosmos 1777 Rocket - Pass Details

Date: 28 September 2021
Orbit: 759 x 775 km, 74.0° (Epoch: 23 October)

Event Time Altitude Azimuth Distance (km) Brightness Sun altitude
Rises 03:25:58 0° 357° (N) 3,227 7.5 -30.9°
Reaches altitude 10° 03:29:33 10° 22° (NNE) 2,297 7.0 -30.3°
Maximum altitude 03:32:16 14° 54° (NE) 2,018 7.0 -29.9°
Drops below altitude 10° 03:34:58 10° 86° (E) 2,291 7.3 -29.4°
Sets 03:38:31 0° 111° (ESE) 3,213 7.8 -28.8°
